Location: Kuppenheim
(48.8299°N, 8.2568°E)
Time: 10:17:55
(UTC+00:00)

CZ-4C R/B - Pass Details

Date: 20 June 2021
Orbit: 606 x 1396 km, 63.4° (Epoch: 01 August)

Event Time Altitude Azimuth Distance (km) Brightness Sun altitude
Exits shadow 01:11:18 - 147° (SSE) 2,689 4.5 -14.2°
Reaches altitude 10° 01:14:16 10° 118° (ESE) 2,217 4.4 -14.0°
Maximum altitude 01:15:33 11° 103° (ESE) 2,206 4.5 -13.9°
Drops below altitude 10° 01:16:52 10° 88° (E) 2,324 4.9 -13.8°
Sets 01:21:35 0° 55° (NE) 3,478 6.6 -13.5°
